Regional Weather Roundup
Issued by NWS

Home | Current Version | Previous Version | Text Only | Print | Product List | Glossary Off
Versions: 1 2 3 4 5 6 7 8 9 10 11 12 13 14 15 16 17 18 19 20 21 22 23 24 25 26 27 28 29 30 31 32 33 34 35 36 37 38 39 40 41 42 43 44 45 46 47 48 49 50

000
ASUS43 KLOT 120910
RWRIL

ILLINOIS REGIONAL WEATHER ROUNDUP
NATIONAL WEATHER SERVICE CHICAGO/ROMEOVILLE IL
400 AM CDT SAT JUL 12 2014

NOTE: "FAIR" INDICATES FEW OR NO CLOUDS BELOW 12,000 FEET WITH NO
SIGNIFICANT WEATHER AND/OR OBSTRUCTIONS TO VISIBILITY.

* THESE STATIONS ARE NOT UNDER NWS QUALITY CONTROL. THEY ALSO MAY NOT
  REPORT WEATHER SUCH AS PRECIPITATION OR FOG.

ILZ001-002-007-009-015-016-024-121000-
NORTHWEST ILLINOIS

CITY           SKY/WX    TMP DP  RH WIND       PRES   REMARKS
MOLINE         CLOUDY    74  68  81 CALM      29.99F
STERLING*      MOCLDY    72  64  78 SE5       30.01F
SAVANNA*       PTCLDY    70  65  83 CALM      30.00S
$$

ILZ003-004-008-010-011-017-018-121000-
NORTH CENTRAL ILLINOIS

CITY           SKY/WX    TMP DP  RH WIND       PRES   REMARKS
ROCKFORD       MOCLDY    70  62  76 SE7       30.03F
FREEPORT*      PTCLDY    66  62  86 CALM      30.04F
ROCHELLE*      CLOUDY    71  62  74 SE8       30.03F
DE KALB*       CLOUDY    68  61  77 SE7       30.05F
PERU*          MOCLDY    73  65  76 S10       30.03F
$$

ILZ005-006-012>014-019>023-121000-
NORTHEAST ILLINOIS

CITY           SKY/WX    TMP DP  RH WIND       PRES   REMARKS
CHICAGO-OHARE  MOCLDY    72  58  61 S7        30.05F
CHICAGO-MIDWAY MOCLDY    76  60  57 S8        30.06F
AURORA         CLOUDY    71  61  70 SE6       30.05F
LANSING*       CLOUDY    72  59  64 S8        30.08F
JOLIET*        MOCLDY    71  60  67 SE5       30.06F
WAUKEGAN       MOCLDY    71  58  63 S7        30.05F
DUPAGE AIRPORT MOCLDY    72  61  68 SE7       30.05F
KANKAKEE*      PTCLDY    71  63  74 SE7       30.07F
WHEELING       CLOUDY    74  60  61 S9        30.06F
MORRIS*        MOCLDY    73  64  72 SE7       30.04F
ROMEOVILLE*    MOCLDY    71  60  70 S8        30.06F
NORTHERLY ISL    N/A     74  59  59 S5          N/A
$$

LMZ740>746-121000-
SOUTHERN LAKE MICHIGAN

STATION/POSITION SKY/WX   TEMP    WIND        PRES    VSBY  WAVE
                          AIR SEA DIR/SP/G                  HT/PER
                          (F)     (DEG/KT/KT) (MB)    (MI)  (FT/S)
SOUTHERN BUOY              64 59  160/  8/ 10 1018.2F         0
WAUKEGAN HARBOR            67     180/  4/  4 1019.0F
HARRISON CRIB              74     180/ 16/ 16   N/A
BURNHAM HARBOR             74     180/  4/  8   N/A
CALUMET HARBOR             74     170/  7/  9 1018.9F
MICHIGAN CITY              73     140/ 11/ 14   N/A
$$

ILZ025>027-034>036-040-047-049-050-058-095>099-121000-
WEST-CENTRAL ILLINOIS

CITY           SKY/WX    TMP DP  RH WIND       PRES   REMARKS
QUINCY         MOCLDY    77  73  87 S9        30.03F
GALESBURG*     CLOUDY    75  71  87 S8        30.01F
MACOMB*        MOCLDY    76  72  87 SW8       30.04F
JACKSONVILLE*  CLOUDY    78  72  81 S8        30.05F HX  81
PITTSFIELD*    CLOUDY    78  72  82 S7        30.07S HX  80
$$

ILZ028>032-037-038-041>044-048-051>054-059>061-121000-
CENTRAL ILLINOIS

CITY           SKY/WX    TMP DP  RH WIND       PRES   REMARKS
PONTIAC        MOCLDY    70  66  88 SE6       30.05F
BLOOMINGTON    TSTM      69  67  93 SE10      30.08F FOG
DECATUR        MOCLDY    73  69  87 SW10      30.08F
PEORIA         MOCLDY    75  68  78 S6        30.02F
LACON*         CLOUDY    73  66  79 S5        30.01F
LINCOLN*       MOCLDY    75  69  81 S5        30.01F
SPRINGFIELD    MOCLDY    77  70  79 S8        30.04F
TAYLORVILLE    CLOUDY    72  70  94 S9        30.06F
$$

ILZ033-039-045-046-055>057-062-063-121000-
EAST-CENTRAL ILLINOIS

CITY           SKY/WX    TMP DP  RH WIND       PRES   REMARKS
CHAMPAIGN      MOCLDY    71  65  81 SE8       30.09F
RANTOUL*       MOCLDY    71  64  81 S5        30.09F
MATTOON        CLOUDY    72  65  78 S8        30.08F
PARIS*         CLOUDY    69  66  89 SE5       30.11F
$$

ILZ079-100>102-121000-
SOUTHWEST ILLINOIS

CITY           SKY/WX    TMP DP  RH WIND       PRES   REMARKS
ALTON          CLOUDY    76  74  91 S7        30.08F
BELLEVILLE     CLOUDY    74  73  95 S3        30.09F
CAHOKIA*       CLOUDY    77  71  82 S5        30.08F
SPARTA*        MOCLDY    72  68  88 SE5       30.11F
$$

ILZ064>066-069>071-074>076-080>082-084>086-088>090-092>094-121000-
SOUTH-CENTRAL ILLINOIS

CITY           SKY/WX    TMP DP  RH WIND       PRES   REMARKS
CARBONDALE     MOCLDY    73  68  84 CALM      30.12F
CAIRO*         CLOUDY    74  69  85 CALM      30.13S
MARION         MOCLDY    73  68  83 S5        30.13F
MT. VERNON     CLOUDY    73  66  78 S3        30.12F
CENTRALIA*     CLOUDY    74  66  75 S6        30.10F
SALEM*         CLOUDY    77  69  76 S6        30.11F
METROPOLIS*    MOCLDY    69  68  96 CALM      30.13S FOG
$$

ILZ067-068-072-073-078-083-087-091-121000-
SOUTHEAST ILLINOIS

CITY           SKY/WX    TMP DP  RH WIND       PRES   REMARKS
FLORA*         CLOUDY    72  67  83 S5        30.12S
HARRISBURG*    MOCLDY    70  70  99 CALM      30.14F FOG
ROBINSON*      CLOUDY    72  68  88 SE3       30.13F
CARMI*         CLOUDY    72  70  96 SE5       30.12F FOG
$$

ABBREVIATIONS USED IN REMARKS
   TC - TEMPERATURE IN CELSIUS
  WCI - WIND CHILL INDEX
   HX - HEAT INDEX
  VSB - VISIBILITY
$$



USA.gov is the U.S. government's official web portal to all federal, state and local government web resources and services.